Weather in Nizhniye Kuryaty

Russia / Krasnoyarsk Krai     53°47′00″N   93°11′42″E
temp.,
°C
wind,
m/s
gust,
m/s
humid.,
%
clouds,
%
prec.,
mm/h
press.,
hPa
HPBL,
m
20 may, fri
fri2001:00+17ene114568 0.0 100511
04:00+15wsw2572100 0.3 1011142
07:00+14sw3889100 0.9 1015578
10:00+15nw1392100 2.6 1016253
13:00+14ssw2489100 4.3 1017195
16:00+15s3485100 1.6 1017510
19:00+15se2483100 1.6 1016333
22:00+11e229537 0.0 101720
21 may, sat
sat2101:00+10e2295100 0.0 101622
04:00+10sse019582 0.3 101710
07:00+12se12865 0.4 1017121
10:00+19sw25535 0.0 1016815
13:00+22wsw4735100 0.0 10142575
16:00+23wsw4735100 0.0 10122645
19:00+20s24545 0.0 1011113
22:00+14se11615 0.0 101211
22 may, sun
sun2201:00+12ese11644 0.0 101211
04:00+11ene22705 0.0 101116
07:00+14ene22632 0.0 1009119
10:00+22ne23435 0.0 1006542
13:00+26nne2332100 0.0 10031202
16:00+27n2232100 0.0 10021063
19:00+22n2254100 0.0 100215
22:00+18sw115298 0.0 100411
23 may, mon
mon2301:00+16sse1160100 0.0 100613
04:00+13e117798 0.0 100812
07:00+17ssw117378 0.0 1011110
10:00+22wsw225057 0.0 1013695
13:00+25w12427 0.0 10131241
16:00+26wsw3338100 0.0 10142015
19:00+17w41077100 0.5 1019846
22:00+12ssw2485100 0.1 1022188
24 may, tue
tue2401:00+10ssw1189100 0.1 102359
04:00+10s1188100 0.0 102279
07:00+11e119297 1.6 1022118
10:00+12nw118699 0.7 1020303
13:00+20ne236262 0.7 1017723
16:00+24ne12504 0.0 1014873
19:00+22nne116471 0.0 101317
22:00+16ese117888 0.0 101411